TimeEDT,TemperatureF,Dew PointF,Humidity,Sea Level PressureIn,VisibilityMPH,Wind Direction,Wind SpeedMPH,Gust SpeedMPH,PrecipitationIn,Events,Conditions,WindDirDegrees,DateUTC
12:15 AM,50.0,44.6,82,29.99,10.0,Calm,Calm,-,N/A,,Clear,0,2013-10-22 04:15:00
12:35 AM,46.4,44.6,93,30.00,10.0,Calm,Calm,-,N/A,,Clear,0,2013-10-22 04:35:00
12:55 AM,46.4,42.8,87,30.00,10.0,Calm,Calm,-,N/A,,Clear,0,2013-10-22 04:55:00
1:15 AM,46.4,44.6,93,30.01,10.0,Calm,Calm,-,N/A,,Clear,0,2013-10-22 05:15:00
1:35 AM,46.4,44.6,93,30.01,10.0,Calm,Calm,-,N/A,,Scattered Clouds,0,2013-10-22 05:35:00
1:55 AM,48.2,44.6,87,30.01,10.0,Calm,Calm,-,N/A,,Scattered Clouds,0,2013-10-22 05:55:00
2:15 AM,48.2,46.4,93,30.01,10.0,Calm,Calm,-,N/A,,Mostly Cloudy,0,2013-10-22 06:15:00
2:35 AM,46.4,46.4,100,30.01,10.0,Calm,Calm,-,N/A,,Overcast,0,2013-10-22 06:35:00
2:55 AM,50.0,46.4,87,30.01,10.0,Calm,Calm,-,N/A,,Overcast,0,2013-10-22 06:55:00
3:15 AM,50.0,44.6,82,30.01,10.0,Calm,Calm,-,N/A,,Overcast,0,2013-10-22 07:15:00
3:35 AM,50.0,46.4,87,30.02,10.0,Calm,Calm,-,N/A,,Overcast,0,2013-10-22 07:35:00
3:55 AM,51.8,44.6,76,30.02,10.0,Calm,Calm,-,N/A,,Overcast,0,2013-10-22 07:55:00
4:15 AM,51.8,46.4,82,30.02,10.0,WNW,4.6,-,0.01,Rain,Rain,290,2013-10-22 08:15:00
4:35 AM,50.0,46.4,87,30.03,10.0,WNW,4.6,-,0.03,Rain,Light Rain,300,2013-10-22 08:35:00
4:55 AM,50.0,48.2,94,30.03,10.0,WNW,3.5,-,0.04,Rain,Rain,300,2013-10-22 08:55:00
5:15 AM,50.0,50.0,100,30.03,10.0,Calm,Calm,-,N/A,,Light Drizzle,0,2013-10-22 09:15:00
5:35 AM,50.0,50.0,100,30.03,10.0,Calm,Calm,-,N/A,Rain,Rain,0,2013-10-22 09:35:00
5:55 AM,50.0,46.4,87,30.04,10.0,NNW,9.2,-,N/A,Rain,Rain,340,2013-10-22 09:55:00
6:15 AM,46.4,46.4,100,30.04,10.0,North,6.9,-,0.01,Rain,Light Rain,360,2013-10-22 10:15:00
6:35 AM,46.4,44.6,93,30.04,10.0,North,5.8,-,0.01,Rain,Rain,350,2013-10-22 10:35:00
6:55 AM,46.4,44.6,93,30.05,10.0,North,3.5,-,0.02,Rain,Light Rain,360,2013-10-22 10:55:00
7:15 AM,46.4,44.6,93,30.05,10.0,North,8.1,-,N/A,Rain,Light Rain,10,2013-10-22 11:15:00
7:35 AM,44.6,42.8,93,30.06,10.0,NNE,8.1,-,0.01,Rain,Light Rain,20,2013-10-22 11:35:00
7:55 AM,44.6,44.6,100,30.06,10.0,NNE,3.5,-,0.02,Rain,Light Rain,20,2013-10-22 11:55:00
8:15 AM,44.6,44.6,100,30.06,7.0,NNE,3.5,-,0.02,Rain,Light Rain,20,2013-10-22 12:15:00
8:35 AM,44.6,44.6,100,30.06,7.0,North,5.8,-,0.02,Rain,Rain,10,2013-10-22 12:35:00
8:55 AM,42.8,37.4,81,30.07,10.0,NNE,10.4,-,0.02,Rain,Rain,20,2013-10-22 12:55:00
9:15 AM,41.0,37.4,87,30.08,10.0,NNE,6.9,-,0.01,Rain,Light Rain,20,2013-10-22 13:15:00
9:35 AM,41.0,37.4,87,30.08,10.0,NNE,8.1,-,0.01,,Drizzle,20,2013-10-22 13:35:00
9:55 AM,41.0,37.4,87,30.08,10.0,NE,5.8,-,0.01,,Light Drizzle,40,2013-10-22 13:55:00
10:15 AM,41.0,37.4,87,30.08,10.0,NE,5.8,-,N/A,,Overcast,50,2013-10-22 14:15:00
10:35 AM,42.8,37.4,81,30.09,10.0,NE,4.6,-,N/A,,Overcast,40,2013-10-22 14:35:00
10:55 AM,42.8,37.4,81,30.07,10.0,East,3.5,-,N/A,,Overcast,80,2013-10-22 14:55:00
11:15 AM,42.8,37.4,81,30.07,10.0,East,3.5,-,N/A,,Overcast,90,2013-10-22 15:15:00
11:35 AM,44.6,37.4,76,30.07,10.0,NNE,5.8,-,N/A,,Overcast,30,2013-10-22 15:35:00
11:55 AM,44.6,35.6,71,30.06,10.0,Calm,Calm,-,N/A,,Overcast,0,2013-10-22 15:55:00
12:15 PM,44.6,37.4,76,30.07,10.0,Calm,Calm,-,N/A,,Scattered Clouds,0,2013-10-22 16:15:00
12:35 PM,44.6,37.4,76,30.05,10.0,NE,4.6,-,N/A,,Clear,40,2013-10-22 16:35:00
12:55 PM,46.4,37.4,71,30.05,10.0,Calm,Calm,-,N/A,,Clear,0,2013-10-22 16:55:00
1:15 PM,48.2,37.4,66,30.03,10.0,NNE,4.6,-,N/A,,Clear,30,2013-10-22 17:15:00
1:35 PM,50.0,35.6,58,30.02,10.0,NE,3.5,-,N/A,,Clear,50,2013-10-22 17:35:00
1:55 PM,50.0,37.4,62,30.00,10.0,Calm,Calm,-,N/A,,Clear,0,2013-10-22 17:55:00
2:15 PM,51.8,37.4,58,29.98,10.0,SSW,4.6,-,N/A,,Clear,210,2013-10-22 18:15:00
2:35 PM,51.8,37.4,58,29.96,10.0,Calm,Calm,-,N/A,,Scattered Clouds,0,2013-10-22 18:35:00
2:55 PM,51.8,35.6,54,29.96,10.0,Calm,Calm,-,N/A,,Scattered Clouds,0,2013-10-22 18:55:00
3:15 PM,53.6,39.2,58,29.95,10.0,Calm,Calm,-,N/A,,Scattered Clouds,0,2013-10-22 19:15:00
3:35 PM,53.6,37.4,54,29.94,10.0,Calm,Calm,-,N/A,,Clear,0,2013-10-22 19:35:00
3:55 PM,53.6,37.4,54,29.94,10.0,WSW,4.6,-,N/A,,Clear,240,2013-10-22 19:55:00
4:15 PM,53.6,37.4,54,29.94,10.0,WNW,3.5,-,N/A,,Clear,290,2013-10-22 20:15:00
4:35 PM,53.6,35.6,51,29.93,10.0,Calm,Calm,-,N/A,,Clear,0,2013-10-22 20:35:00
4:55 PM,53.6,35.6,51,29.93,10.0,Calm,Calm,-,N/A,,Clear,0,2013-10-22 20:55:00
5:15 PM,53.6,37.4,54,29.93,10.0,SW,4.6,-,N/A,,Clear,220,2013-10-22 21:15:00
5:35 PM,53.6,37.4,54,29.92,10.0,Calm,Calm,-,N/A,,Clear,0,2013-10-22 21:35:00
5:55 PM,53.6,39.2,58,29.91,10.0,SSE,3.5,-,N/A,,Clear,150,2013-10-22 21:55:00
6:15 PM,51.8,41.0,67,29.91,10.0,Calm,Calm,-,N/A,,Clear,0,2013-10-22 22:15:00
6:35 PM,51.8,41.0,67,29.91,10.0,SSW,4.6,-,N/A,,Scattered Clouds,200,2013-10-22 22:35:00
6:55 PM,50.0,42.8,76,29.91,10.0,South,3.5,-,N/A,,Scattered Clouds,190,2013-10-22 22:55:00
7:15 PM,48.2,42.8,82,29.91,10.0,Calm,Calm,-,N/A,,Clear,0,2013-10-22 23:15:00
7:35 PM,48.2,42.8,82,29.91,10.0,Calm,Calm,-,N/A,,Clear,0,2013-10-22 23:35:00
7:55 PM,46.4,42.8,87,29.91,10.0,Calm,Calm,-,N/A,,Scattered Clouds,0,2013-10-22 23:55:00
8:15 PM,44.6,42.8,93,29.92,10.0,Calm,Calm,-,N/A,,Scattered Clouds,0,2013-10-23 00:15:00
8:35 PM,44.6,44.6,100,29.91,10.0,Calm,Calm,-,N/A,,Clear,0,2013-10-23 00:35:00
8:55 PM,44.6,42.8,93,29.91,10.0,Calm,Calm,-,N/A,,Clear,0,2013-10-23 00:55:00
9:15 PM,42.8,42.8,100,29.91,10.0,Calm,Calm,-,N/A,,Clear,0,2013-10-23 01:15:00
9:35 PM,42.8,42.8,100,29.91,10.0,Calm,Calm,-,N/A,,Scattered Clouds,0,2013-10-23 01:35:00
9:55 PM,42.8,42.8,100,29.90,7.0,SE,3.5,-,N/A,,Clear,130,2013-10-23 01:55:00
10:35 PM,41.0,41.0,100,29.90,7.0,Calm,Calm,-,N/A,,Scattered Clouds,0,2013-10-23 02:35:00
11:15 PM,42.8,42.8,100,29.90,7.0,Calm,Calm,-,N/A,,Mostly Cloudy,0,2013-10-23 03:15:00
11:35 PM,41.0,41.0,100,29.89,7.0,Calm,Calm,-,N/A,,Overcast,0,2013-10-23 03:35:00
11:55 PM,41.0,41.0,100,29.88,7.0,Calm,Calm,-,N/A,,Overcast,0,2013-10-23 03:55:00